sat.trackr.live / text

‹ back to catalog

STARLINK-5266

NORAD 55290 · 2023-010X

PAYLOAD ACTIVE UNKNOWN

§ Identity

Operator
Country
US
Launch date
2023-01-19
Launch site
AFWTR
Launch vehicle
Mass (kg)
RCS (m²)

Purposes: comms

External: N2YO · Heavens-Above · Gunter

§ Orbital elements

Epoch: 2026-05-24T19:57:47.541600Z

Period
96.11 min
Inclination
69.9989°
Eccentricity
0.0003658
Mean motion
14.98330710 rev/d
Perigee alt
569.5 km
Apogee alt
574.6 km
Semi-major
6,950.2 km
B*
1.1256e-6
RAAN
192.5080°
Arg perigee
267.0976°
Mean anomaly
92.9764°
Rev number
18,467

§ Raw data

STARLINK-52661 55290U 23010X   26144.83180025 -.00000080  00000+0  11256-5 0  99992 55290  69.9989 192.5080 0003658 267.0976  92.9764 14.98330710184676

JSON: /api/v1/satellites/55290 · /tle

For live sub-satellite position, see the globe view (requires WebGL).

§ Visibility from observer

Set your observer location to see the next 7 days of passes ≥ 10°. The values pass through the URL so the page stays shareable.

No JS? Fill the form by hand. The geolocation button needs JavaScript.